,,,PA_Meas_PMT16A,,PR_Meas_QMR101_102,,RH_Meas_QMH101,,SR_Meas_QMS101,,TA_Meas_QMH101,,GenWind,,GenWind,
date,time,status,PA,status,PR,status,RH,status,SR,status,TA,status,DirAvg,status,SpdAvg,
2009-12-02, 00:00:04,VALID,1000.96,VALID,0,VALID,93.4323,VALID,0,VALID,23.428,VALID,33,VALID,0.573047,
2009-12-02, 00:01:04,VALID,1000.99,VALID,0,VALID,93.4781,VALID,0,VALID,23.428,VALID,59,VALID,0.792188,
2009-12-02, 00:02:04,VALID,1001.01,VALID,0,VALID,93.4628,VALID,0,VALID,23.428,VALID,64,VALID,0.529688,
2009-12-02, 00:03:04,VALID,1000.99,VALID,0,VALID,93.4781,VALID,0,VALID,23.428,VALID,102,VALID,0.410547,
2009-12-02, 00:04:04,VALID,1001.05,VALID,0,VALID,93.4934,VALID,0,VALID,23.4688,VALID,102,VALID,0,
2009-12-02, 00:05:04,VALID,1000.95,VALID,0,VALID,93.4934,VALID,0,VALID,23.428,VALID,102,VALID,0.00078125,
2009-12-02, 00:06:04,VALID,1000.98,VALID,0,VALID,93.5544,VALID,0,VALID,23.4475,VALID,103,VALID,0.145703,
2009-12-02, 00:07:04,VALID,1000.96,VALID,0,VALID,93.5468,VALID,0,VALID,23.4475,VALID,96,VALID,0,
2009-12-02, 00:08:04,VALID,1000.98,VALID,0,VALID,93.5468,VALID,0,VALID,23.4475,VALID,96,VALID,0,
2009-12-02, 00:09:04,VALID,1000.93,VALID,0,VALID,93.5773,VALID,0,VALID,23.4671,VALID,90,VALID,0.415625,
2009-12-02, 00:10:04,VALID,1000.87,VALID,0,VALID,93.5697,VALID,0,VALID,23.4671,VALID,82,VALID,0.198047,
2009-12-02, 00:11:04,VALID,1000.85,VALID,0,VALID,93.5926,VALID,0,VALID,23.5061,VALID,77,VALID,0.0121094,
2009-12-02, 00:12:04,VALID,1000.86,VALID,0,VALID,93.5773,VALID,0,VALID,23.5061,VALID,73,VALID,0,
2009-12-02, 00:13:04,VALID,1000.83,VALID,0,VALID,93.5773,VALID,0,VALID,23.5061,VALID,73,VALID,0,
2009-12-02, 00:14:04,VALID,1000.79,VALID,0,VALID,93.5773,VALID,0,VALID,23.5256,VALID,73,VALID,0,
2009-12-02, 00:15:04,VALID,1000.79,VALID,0,VALID,93.5849,VALID,0,VALID,23.5256,VALID,73,VALID,0,
2009-12-02, 00:16:04,VALID,1000.77,VALID,0,VALID,93.5926,VALID,0,VALID,23.5451,VALID,73,VALID,0,
2009-12-02, 00:17:04,VALID,1000.76,VALID,0,VALID,93.6383,VALID,0,VALID,23.5451,VALID,73,VALID,0,
2009-12-02, 00:18:04,VALID,1000.75,VALID,0,VALID,93.6536,VALID,0,VALID,23.5841,VALID,343,VALID,0.3875,
2009-12-02, 00:19:04,VALID,1000.74,VALID,0,VALID,93.6612,VALID,0,VALID,23.5841,VALID,343,VALID,0.156641,
2009-12-02, 00:20:04,VALID,1000.74,VALID,0,VALID,93.6612,VALID,0,VALID,23.5841,VALID,343,VALID,0,
2009-12-02, 00:21:04,VALID,1000.7,VALID,0,VALID,93.6841,VALID,0,VALID,23.6036,VALID,343,VALID,0,
2009-12-02, 00:22:04,VALID,1000.74,VALID,0,VALID,93.6994,VALID,0,VALID,23.6232,VALID,343,VALID,0,
2009-12-02, 00:23:04,VALID,1000.67,VALID,0,VALID,93.707,VALID,0,VALID,23.6427,VALID,343,VALID,0,
2009-12-02, 00:24:04,VALID,1000.71,VALID,0,VALID,93.6841,VALID,0,VALID,23.6427,VALID,343,VALID,0,
2009-12-02, 00:25:04,VALID,1000.7,VALID,0,VALID,93.6841,VALID,0,VALID,23.6427,VALID,343,VALID,0,
2009-12-02, 00:26:04,VALID,1000.68,VALID,0,VALID,93.6994,VALID,0,VALID,23.6622,VALID,343,VALID,0,
2009-12-02, 00:27:04,VALID,1000.67,VALID,0,VALID,93.6994,VALID,0,VALID,23.6622,VALID,343,VALID,0,
2009-12-02, 00:28:04,VALID,1000.65,VALID,0,VALID,93.707,VALID,0,VALID,23.6622,VALID,73,VALID,0.664063,
2009-12-02, 00:29:04,VALID,1000.64,VALID,0,VALID,93.7146,VALID,0,VALID,23.6817,VALID,89,VALID,0.605859,
2009-12-02, 00:30:04,VALID,1000.64,VALID,0,VALID,93.6841,VALID,0,VALID,23.6622,VALID,92,VALID,0.0175781,
2009-12-02, 00:31:04,VALID,1000.65,VALID,0,VALID,93.6688,VALID,0,VALID,23.6817,VALID,92,VALID,0.00585938,
2009-12-02, 00:32:04,VALID,1000.64,VALID,0,VALID,93.6307,VALID,0,VALID,23.6817,VALID,92,VALID,0.00273437,
2009-12-02, 00:33:04,VALID,1000.6,VALID,0,VALID,93.6307,VALID,0,VALID,23.6817,VALID,92,VALID,0,
2009-12-02, 00:34:04,VALID,1000.6,VALID,0,VALID,93.6002,VALID,0,VALID,23.6817,VALID,92,VALID,0.470703,
2009-12-02, 00:35:04,VALID,1000.59,VALID,0,VALID,93.6002,VALID,0,VALID,23.7012,VALID,92,VALID,0,
2009-12-02, 00:36:04,VALID,1000.6,VALID,0,VALID,93.6231,VALID,0,VALID,23.7012,VALID,92,VALID,0,
2009-12-02, 00:37:04,VALID,1000.62,VALID,0,VALID,93.646,VALID,0,VALID,23.7207,VALID,92,VALID,0,
2009-12-02, 00:38:04,VALID,1000.62,VALID,0,VALID,93.6154,VALID,0,VALID,23.7207,VALID,92,VALID,0,
2009-12-02, 00:39:04,VALID,1000.64,VALID,0,VALID,93.5926,VALID,0,VALID,23.7207,VALID,150,VALID,0.39375,
2009-12-02, 00:40:04,VALID,1000.6,VALID,0,VALID,93.5849,VALID,0,VALID,23.7012,VALID,199,VALID,0,
2009-12-02, 00:41:04,VALID,1000.55,VALID,0,VALID,93.5849,VALID,0,VALID,23.7012,VALID,125,VALID,0.0664063,
2009-12-02, 00:42:04,VALID,1000.51,VALID,0,VALID,93.4857,VALID,0,VALID,23.6622,VALID,82,VALID,0.904688,
2009-12-02, 00:43:04,VALID,1000.51,VALID,0,VALID,93.5086,VALID,0,VALID,23.6622,VALID,78,VALID,1.32539,
2009-12-02, 00:44:04,VALID,1000.48,VALID,0,VALID,93.4628,VALID,0,VALID,23.7012,VALID,76,VALID,1.51758,
2009-12-02, 00:45:04,VALID,1000.45,VALID,0,VALID,93.44,VALID,0,VALID,23.6994,VALID,67,VALID,1.00391,
2009-12-02, 00:46:04,VALID,1000.45,VALID,0,VALID,93.4094,VALID,0,VALID,23.7402,VALID,66,VALID,1.4793,
2009-12-02, 00:47:04,VALID,1000.45,VALID,0,VALID,93.3255,VALID,0,VALID,23.7597,VALID,324,VALID,0.473437,
2009-12-02, 00:48:04,VALID,1000.46,VALID,0,VALID,93.2797,VALID,0,VALID,23.7793,VALID,234,VALID,1.09687,
2009-12-02, 00:49:04,VALID,1000.46,VALID,0,VALID,93.2721,VALID,0,VALID,23.8183,VALID,200,VALID,1.13242,
2009-12-02, 00:50:04,VALID,1000.43,VALID,0,VALID,93.2721,VALID,0,VALID,23.8591,VALID,196,VALID,0.221484,
2009-12-02, 00:51:04,VALID,1000.39,VALID,0,VALID,93.295,VALID,0,VALID,23.8963,VALID,206,VALID,0,
2009-12-02, 00:52:04,VALID,1000.39,VALID,0,VALID,93.2645,VALID,0,VALID,23.9354,VALID,122,VALID,0.420312,
2009-12-02, 00:53:04,VALID,1000.4,VALID,0,VALID,93.234,VALID,0,VALID,23.9744,VALID,78,VALID,0.323438,
2009-12-02, 00:54:04,VALID,1000.42,VALID,0,VALID,93.2187,VALID,0,VALID,23.9939,VALID,281,VALID,0.721094,
2009-12-02, 00:55:04,VALID,1000.4,VALID,0,VALID,93.15,VALID,0,VALID,23.9744,VALID,278,VALID,0.689453,
2009-12-02, 00:56:04,VALID,1000.39,VALID,0,VALID,93.1119,VALID,0,VALID,23.9939,VALID,278,VALID,0.0773437,
2009-12-02, 00:57:04,VALID,1000.36,VALID,0,VALID,93.0966,VALID,0,VALID,23.9939,VALID,132,VALID,0,
2009-12-02, 00:58:04,VALID,1000.38,VALID,0,VALID,93.0737,VALID,0,VALID,23.9939,VALID,133,VALID,0,
2009-12-02, 00:59:04,VALID,1000.37,VALID,0,VALID,93.0661,VALID,0,VALID,23.9744,VALID,143,VALID,0,
2009-12-02, 01:00:04,VALID,1000.38,VALID,0,VALID,93.0585,VALID,0,VALID,23.9549,VALID,252,VALID,0,
2009-12-02, 01:01:04,VALID,1000.34,VALID,0,VALID,93.089,VALID,0,VALID,23.9549,VALID,253,VALID,0,
2009-12-02, 01:02:04,VALID,1000.35,VALID,0,VALID,93.1043,VALID,0,VALID,23.9549,VALID,253,VALID,0,
2009-12-02, 01:03:04,VALID,1000.33,VALID,0,VALID,93.1577,VALID,0,VALID,23.9354,VALID,253,VALID,0,
2009-12-02, 01:04:04,VALID,1000.3,VALID,0,VALID,93.1882,VALID,0,VALID,23.9744,VALID,253,VALID,0,
2009-12-02, 01:05:04,VALID,1000.33,VALID,0,VALID,93.2034,VALID,0,VALID,23.9744,VALID,253,VALID,0,
2009-12-02, 01:06:04,VALID,1000.34,VALID,0,VALID,93.2111,VALID,0,VALID,23.9744,VALID,253,VALID,0,
2009-12-02, 01:07:04,VALID,1000.33,VALID,0,VALID,93.2111,VALID,0,VALID,23.9744,VALID,253,VALID,0,
2009-12-02, 01:08:04,VALID,1000.3,VALID,0,VALID,93.2034,VALID,0,VALID,23.9354,INVALID,360,VALID,0,
2009-12-02, 01:09:04,VALID,1000.29,VALID,0,VALID,93.2263,VALID,0,VALID,23.9354,VALID,253,VALID,0,
2009-12-02, 01:10:04,VALID,1000.3,VALID,0,VALID,93.234,VALID,0,VALID,23.9159,VALID,253,VALID,0,
2009-12-02, 01:11:04,VALID,1000.29,VALID,0,VALID,93.2874,VALID,0,VALID,23.8963,VALID,253,VALID,0,
2009-12-02, 01:12:04,VALID,1000.26,VALID,0,VALID,93.356,VALID,0,VALID,23.9159,VALID,186,VALID,0,
2009-12-02, 01:13:04,VALID,1000.25,VALID,0,VALID,93.3942,VALID,0,VALID,23.9354,VALID,164,VALID,0,
2009-12-02, 01:14:04,VALID,1000.24,VALID,0,VALID,93.3942,VALID,0,VALID,23.9549,VALID,164,VALID,0,
2009-12-02, 01:15:04,VALID,1000.23,VALID,0,VALID,93.4247,VALID,0,VALID,23.9939,VALID,169,VALID,0.869141,
2009-12-02, 01:16:04,VALID,1000.21,VALID,0,VALID,93.4247,VALID,0,VALID,23.9744,VALID,171,VALID,0.340234,
2009-12-02, 01:17:04,VALID,1000.22,VALID,0,VALID,93.44,VALID,0,VALID,23.9939,VALID,171,VALID,0.341016,
2009-12-02, 01:18:04,VALID,1000.19,VALID,0,VALID,93.44,VALID,0,VALID,23.9939,VALID,167,VALID,0.435156,
2009-12-02, 01:19:04,VALID,1000.13,VALID,0,VALID,93.4323,VALID,0,VALID,23.9939,VALID,126,VALID,0.880859,
2009-12-02, 01:20:04,VALID,1000.13,VALID,0,VALID,93.4094,VALID,0,VALID,23.9939,VALID,122,VALID,0.753906,
2009-12-02, 01:21:04,VALID,1000.12,VALID,0,VALID,93.4094,VALID,0,VALID,23.9939,VALID,122,VALID,0.641016,
2009-12-02, 01:22:04,VALID,1000.1,VALID,0,VALID,93.4094,VALID,0,VALID,24.0134,VALID,122,VALID,0.352734,
2009-12-02, 01:23:04,VALID,1000.1,VALID,0,VALID,93.4247,VALID,0,VALID,24.0134,VALID,122,VALID,0,
2009-12-02, 01:24:04,VALID,1000.1,VALID,0,VALID,93.4476,VALID,0,VALID,24.0329,VALID,122,VALID,0,
2009-12-02, 01:25:04,VALID,1000.11,VALID,0,VALID,93.4552,VALID,0,VALID,24.0134,VALID,122,VALID,0,
2009-12-02, 01:26:04,VALID,1000.09,VALID,0,VALID,93.4628,VALID,0,VALID,24.0329,VALID,121,VALID,0.716797,
2009-12-02, 01:27:04,VALID,1000.08,VALID,0,VALID,93.4705,VALID,0,VALID,24.0329,VALID,111,VALID,0.720703,
2009-12-02, 01:28:04,VALID,1000.08,VALID,0,VALID,93.4781,VALID,0,VALID,24.0329,VALID,117,VALID,0.991797,
2009-12-02, 01:29:04,VALID,1000.06,VALID,0,VALID,93.501,VALID,0,VALID,24.0525,VALID,119,VALID,0.659766,
2009-12-02, 01:30:04,VALID,1000.06,VALID,0,VALID,93.4781,VALID,0,VALID,24.0525,VALID,126,VALID,0.496484,
2009-12-02, 01:31:04,VALID,1000.02,VALID,0,VALID,93.4857,VALID,0,VALID,24.072,VALID,101,VALID,1.07383,
2009-12-02, 01:32:04,VALID,999.973,VALID,0,VALID,93.4705,VALID,0,VALID,24.0933,VALID,97,VALID,1.36094,
2009-12-02, 01:33:04,VALID,999.971,VALID,0,VALID,93.4171,VALID,0,VALID,24.0525,VALID,98,VALID,1.32305,
2009-12-02, 01:34:04,VALID,999.978,VALID,0,VALID,93.4247,VALID,0,VALID,24.0329,VALID,107,VALID,1.41016,
2009-12-02, 01:35:04,VALID,999.982,VALID,0,VALID,93.4171,VALID,0,VALID,24.0329,VALID,104,VALID,1.3125,
2009-12-02, 01:36:04,VALID,999.943,VALID,0,VALID,93.4247,VALID,0,VALID,24.0134,VALID,105,VALID,1.53828,
2009-12-02, 01:37:04,VALID,999.969,VALID,0,VALID,93.44,VALID,0,VALID,24.0329,VALID,114,VALID,0.749609,
2009-12-02, 01:38:04,VALID,999.975,VALID,0,VALID,93.4247,VALID,0,VALID,24.0134,VALID,121,VALID,0.485938,
2009-12-02, 01:39:04,VALID,999.953,VALID,0,VALID,93.4247,VALID,0,VALID,24.0134,VALID,122,VALID,0.590234,
2009-12-02, 01:40:04,VALID,999.993,VALID,0,VALID,93.4323,VALID,0,VALID,23.9939,VALID,133,VALID,1.07266,
2009-12-02, 01:41:04,VALID,999.986,VALID,0,VALID,93.4018,VALID,0,VALID,23.9744,VALID,125,VALID,0.355078,
2009-12-02, 01:42:04,VALID,999.939,VALID,0,VALID,93.4323,VALID,0,VALID,23.9957,VALID,130,VALID,0.229297,
2009-12-02, 01:43:04,VALID,999.939,VALID,0,VALID,93.4323,VALID,0,VALID,23.9957,VALID,137,VALID,1.03281,
2009-12-02, 01:44:04,VALID,999.917,VALID,0,VALID,93.4628,VALID,0,VALID,23.9354,VALID,143,VALID,0.461719,
2009-12-02, 01:45:04,VALID,999.922,VALID,0,VALID,93.4323,VALID,0,VALID,23.9354,VALID,142,VALID,0.442969,
2009-12-02, 01:46:04,VALID,999.927,VALID,0,VALID,93.4094,VALID,0,VALID,23.9567,VALID,117,VALID,0.540234,
2009-12-02, 01:47:04,VALID,999.99,VALID,0,VALID,93.4247,VALID,0,VALID,23.9159,VALID,182,VALID,0.0730469,
2009-12-02, 01:48:04,VALID,1000.02,VALID,0,VALID,93.4552,VALID,0,VALID,23.9159,VALID,251,VALID,0.105469,
2009-12-02, 01:49:04,VALID,1000,VALID,0,VALID,93.4705,VALID,0,VALID,23.9159,VALID,251,VALID,0,
2009-12-02, 01:50:04,VALID,999.982,VALID,0,VALID,93.4552,VALID,0,VALID,23.9372,VALID,251,VALID,0,
2009-12-02, 01:51:04,VALID,999.977,VALID,0,VALID,93.4552,VALID,0,VALID,23.9159,VALID,285,VALID,0,
2009-12-02, 01:52:04,VALID,999.97,VALID,0,VALID,93.4476,VALID,0,VALID,23.9159,VALID,3,VALID,0.951563,
2009-12-02, 01:53:04,VALID,999.909,VALID,0,VALID,93.4552,VALID,0,VALID,23.8963,VALID,13,VALID,1.10781,
2009-12-02, 01:54:04,VALID,999.945,VALID,0,VALID,93.4171,VALID,0,VALID,23.8768,VALID,15,VALID,0.783594,
2009-12-02, 01:55:04,VALID,999.92,VALID,0,VALID,93.4018,VALID,0,VALID,23.8963,VALID,9,VALID,0.794922,
2009-12-02, 01:56:04,VALID,999.928,VALID,0,VALID,93.3942,VALID,0,VALID,23.8963,VALID,9,VALID,0.389453,
2009-12-02, 01:57:04,VALID,999.922,VALID,0,VALID,93.44,VALID,0,VALID,23.8963,VALID,9,VALID,0.550391,
2009-12-02, 01:58:04,VALID,999.995,VALID,0,VALID,93.4476,VALID,0,VALID,23.9177,VALID,9,VALID,0.7625,
2009-12-02, 01:59:04,VALID,999.994,VALID,0,VALID,93.4552,VALID,0,VALID,23.9354,VALID,10,VALID,0.686328,
2009-12-02, 02:00:04,VALID,999.983,VALID,0,VALID,93.4781,VALID,0,VALID,23.9354,VALID,10,VALID,0.717188,
2009-12-02, 02:01:04,VALID,999.986,VALID,0,VALID,93.4857,VALID,0,VALID,23.9354,VALID,11,VALID,0.791406,
2009-12-02, 02:02:04,VALID,1000.01,VALID,0,VALID,93.4934,VALID,0,VALID,23.9567,VALID,15,VALID,1.04531,
2009-12-02, 02:03:04,VALID,999.989,VALID,0,VALID,93.5239,VALID,0,VALID,23.9354,VALID,16,VALID,1.02109,
2009-12-02, 02:04:04,VALID,1000,VALID,0,VALID,93.5086,VALID,0,VALID,23.9354,VALID,24,VALID,0.836719,
2009-12-02, 02:05:04,VALID,999.96,VALID,0,VALID,93.501,VALID,0,VALID,23.9159,VALID,24,VALID,0.635547,
2009-12-02, 02:06:04,VALID,999.987,VALID,0,VALID,93.5086,VALID,0,VALID,23.9159,VALID,27,VALID,0.691016,
2009-12-02, 02:07:04,VALID,999.968,VALID,0,VALID,93.4934,VALID,0,VALID,23.9159,VALID,30,VALID,0.621094,
2009-12-02, 02:08:04,VALID,999.94,VALID,0,VALID,93.5086,VALID,0,VALID,23.9372,VALID,58,VALID,0.628906,
2009-12-02, 02:09:04,VALID,999.96,VALID,0,VALID,93.5391,VALID,0,VALID,23.9549,VALID,59,VALID,0.550781,
2009-12-02, 02:10:04,VALID,999.973,VALID,0,VALID,93.5315,VALID,0,VALID,23.9549,VALID,59,VALID,0.436328,
2009-12-02, 02:11:04,VALID,999.997,VALID,0,VALID,93.501,VALID,0,VALID,23.9744,VALID,59,VALID,0.348437,
2009-12-02, 02:12:04,VALID,999.988,VALID,0,VALID,93.4934,VALID,0,VALID,23.9744,VALID,59,VALID,0.294141,
2009-12-02, 02:13:04,VALID,1000.01,VALID,0,VALID,93.4628,VALID,0,VALID,24.0153,VALID,59,VALID,0.450391,
2009-12-02, 02:14:04,VALID,999.989,VALID,0,VALID,93.501,VALID,0,VALID,24.0134,VALID,157,VALID,0.709375,
2009-12-02, 02:15:04,VALID,999.942,VALID,0,VALID,93.5163,VALID,0,VALID,24.0329,VALID,157,VALID,0.663672,
2009-12-02, 02:16:04,VALID,999.997,VALID,0,VALID,93.5086,VALID,0,VALID,24.072,VALID,154,VALID,0.776563,
2009-12-02, 02:17:04,VALID,999.945,VALID,0,VALID,93.4628,VALID,0,VALID,24.072,VALID,137,VALID,0.828125,
2009-12-02, 02:18:04,VALID,999.935,VALID,0,VALID,93.4552,VALID,0,VALID,24.0933,VALID,136,VALID,0.876562,
2009-12-02, 02:19:04,VALID,999.93,VALID,0,VALID,93.4094,VALID,0,VALID,24.072,VALID,136,VALID,0.848437,
2009-12-02, 02:20:04,VALID,999.951,VALID,0,VALID,93.3789,VALID,0,VALID,24.0915,VALID,130,VALID,0.908203,
2009-12-02, 02:21:04,VALID,999.919,VALID,0,VALID,93.3026,VALID,0,VALID,24.1324,VALID,127,VALID,1.0582,
2009-12-02, 02:22:04,VALID,999.921,VALID,0,VALID,93.2645,VALID,0,VALID,24.111,VALID,126,VALID,1.07109,
2009-12-02, 02:23:04,VALID,999.915,VALID,0,VALID,93.2111,VALID,0,VALID,24.1305,VALID,126,VALID,0.872266,
2009-12-02, 02:24:04,VALID,999.916,VALID,0,VALID,93.2034,VALID,0,VALID,24.15,VALID,135,VALID,0.471875,
2009-12-02, 02:25:04,VALID,999.909,VALID,0,VALID,93.1271,VALID,0,VALID,24.15,VALID,135,VALID,0.9625,
2009-12-02, 02:26:04,VALID,999.901,VALID,0,VALID,93.0966,VALID,0,VALID,24.1696,VALID,132,VALID,1.125,
2009-12-02, 02:27:04,VALID,999.906,VALID,0,VALID,93.0508,VALID,0,VALID,24.1891,VALID,129,VALID,0.898047,
2009-12-02, 02:28:04,VALID,999.91,VALID,0,VALID,93.0203,VALID,0,VALID,24.2299,VALID,128,VALID,0.916016,
2009-12-02, 02:29:04,VALID,999.946,VALID,0,VALID,92.9669,VALID,0,VALID,24.2281,VALID,125,VALID,0.792188,
2009-12-02, 02:30:04,VALID,999.912,VALID,0,VALID,92.944,VALID,0,VALID,24.2281,VALID,122,VALID,0.860156,
2009-12-02, 02:31:04,VALID,999.941,VALID,0,VALID,92.9364,VALID,0,VALID,24.2476,VALID,121,VALID,0.334766,
2009-12-02, 02:32:04,VALID,999.979,VALID,0,VALID,92.9135,VALID,0,VALID,24.2476,VALID,120,VALID,0.0148437,
2009-12-02, 02:33:04,VALID,1000,VALID,0,VALID,92.9135,VALID,0,VALID,24.2476,VALID,115,VALID,0.7,
2009-12-02, 02:34:04,VALID,999.984,VALID,0,VALID,92.883,VALID,0,VALID,24.2476,VALID,112,VALID,0.873047,
2009-12-02, 02:35:04,VALID,999.982,VALID,0,VALID,92.8525,VALID,0,VALID,24.2476,VALID,103,VALID,0.951953,
2009-12-02, 02:36:04,VALID,999.989,VALID,0,VALID,92.7685,VALID,0,VALID,24.2476,VALID,102,VALID,0.86875,
2009-12-02, 02:37:04,VALID,1000,VALID,0,VALID,92.7533,VALID,0,VALID,24.2671,VALID,76,VALID,1.21211,
2009-12-02, 02:38:04,VALID,1000,VALID,0,VALID,92.7838,VALID,0,VALID,24.308,VALID,73,VALID,1.27383,
2009-12-02, 02:39:04,VALID,999.991,VALID,0,VALID,92.6007,VALID,0,VALID,24.2885,VALID,80,VALID,0.778125,
2009-12-02, 02:40:04,VALID,999.987,VALID,0,VALID,92.5549,VALID,0,VALID,24.3275,VALID,84,VALID,0.634375,
2009-12-02, 02:41:04,VALID,999.974,VALID,0,VALID,92.5473,VALID,0,VALID,24.3452,VALID,91,VALID,0.621875,
2009-12-02, 02:42:04,VALID,999.934,VALID,0,VALID,92.5091,VALID,0,VALID,24.3452,VALID,98,VALID,0.85,
2009-12-02, 02:43:04,VALID,999.939,VALID,0,VALID,92.4481,VALID,0,VALID,24.347,VALID,99,VALID,1.06992,
2009-12-02, 02:44:04,VALID,999.961,VALID,0,VALID,92.4405,VALID,0,VALID,24.347,VALID,116,VALID,0.570703,
2009-12-02, 02:45:04,VALID,999.98,VALID,0,VALID,92.4634,VALID,0,VALID,24.347,VALID,139,VALID,0.561328,
2009-12-02, 02:46:04,VALID,999.922,VALID,0,VALID,92.471,VALID,0,VALID,24.3257,VALID,136,VALID,0.926953,
2009-12-02, 02:47:04,VALID,999.902,VALID,0,VALID,92.4863,VALID,0,VALID,24.3257,VALID,119,VALID,1.31406,
2009-12-02, 02:48:04,VALID,999.866,VALID,0,VALID,92.3337,VALID,0,VALID,24.3062,VALID,120,VALID,0.773047,
2009-12-02, 02:49:04,VALID,999.842,VALID,0,VALID,91.647,VALID,0,VALID,24.2476,VALID,132,VALID,0.989062,
2009-12-02, 02:50:04,VALID,999.823,VALID,0,VALID,91.5936,VALID,0,VALID,24.3257,VALID,114,VALID,0.662109,
2009-12-02, 02:51:04,VALID,999.805,VALID,0,VALID,91.708,VALID,0,VALID,24.4056,VALID,114,VALID,0,
2009-12-02, 02:52:04,VALID,999.787,VALID,0,VALID,91.7767,VALID,0,VALID,24.4037,VALID,115,VALID,0.654688,
2009-12-02, 02:53:04,VALID,999.795,VALID,0,VALID,91.8683,VALID,0,VALID,24.3861,VALID,113,VALID,0.694141,
2009-12-02, 02:54:04,VALID,999.807,VALID,0,VALID,91.9751,VALID,0,VALID,24.3666,VALID,110,VALID,1.03359,
2009-12-02, 02:55:04,VALID,999.782,VALID,0,VALID,92.0437,VALID,0,VALID,24.3257,VALID,107,VALID,0.971484,
2009-12-02, 02:56:04,VALID,999.821,VALID,0,VALID,92.1506,VALID,0,VALID,24.3062,VALID,106,VALID,0.969922,
2009-12-02, 02:57:04,VALID,999.817,VALID,0,VALID,92.0819,VALID,0,VALID,24.2671,VALID,105,VALID,0.931641,
2009-12-02, 02:58:04,VALID,999.822,VALID,0,VALID,92.0056,VALID,0,VALID,24.2671,VALID,105,VALID,1.07187,
2009-12-02, 02:59:04,VALID,999.817,VALID,0,VALID,92.0209,VALID,0,VALID,24.269,VALID,114,VALID,1.26836,
2009-12-02, 03:00:04,VALID,999.85,VALID,0,VALID,92.0895,VALID,0,VALID,24.2476,VALID,115,VALID,1.30156,
2009-12-02, 03:01:04,VALID,999.848,VALID,0,VALID,92.1429,VALID,0,VALID,24.2281,VALID,116,VALID,1.14922,
2009-12-02, 03:02:04,VALID,999.837,VALID,0,VALID,92.1658,VALID,0,VALID,24.1891,VALID,121,VALID,0.424219,
2009-12-02, 03:03:04,VALID,999.851,VALID,0,VALID,92.2803,VALID,0,VALID,24.15,VALID,156,VALID,0.236328,
2009-12-02, 03:04:04,VALID,999.886,VALID,0,VALID,92.4176,VALID,0,VALID,24.15,VALID,157,VALID,0.00195313,
2009-12-02, 03:05:04,VALID,999.905,VALID,0,VALID,92.5626,VALID,0,VALID,24.1305,INVALID,360,VALID,0.215234,
2009-12-02, 03:06:04,VALID,999.885,VALID,0,VALID,92.6312,VALID,0,VALID,24.1305,VALID,278,VALID,0.269531,
2009-12-02, 03:07:04,VALID,999.891,VALID,0,VALID,92.6999,VALID,0,VALID,24.1305,VALID,286,VALID,0.527734,
2009-12-02, 03:08:04,VALID,999.876,VALID,0,VALID,92.7304,VALID,0,VALID,24.1305,VALID,355,VALID,0.323047,
2009-12-02, 03:09:04,VALID,999.859,VALID,0,VALID,92.677,VALID,0,VALID,24.0915,VALID,355,VALID,0.0808594,
2009-12-02, 03:10:04,VALID,999.86,VALID,0,VALID,92.6923,VALID,0,VALID,24.072,VALID,355,VALID,0,
2009-12-02, 03:11:04,VALID,999.83,VALID,0,VALID,92.6999,VALID,0,VALID,24.072,VALID,355,VALID,0,
2009-12-02, 03:12:04,VALID,999.829,VALID,0,VALID,92.7075,VALID,0,VALID,24.0915,VALID,355,VALID,0,
2009-12-02, 03:13:04,VALID,999.813,VALID,0,VALID,92.6923,VALID,0,VALID,24.111,VALID,355,VALID,0,
2009-12-02, 03:14:04,VALID,999.81,VALID,0,VALID,92.7075,VALID,0,VALID,24.1305,VALID,355,VALID,0,
2009-12-02, 03:15:04,VALID,999.765,VALID,0,VALID,92.6465,VALID,0,VALID,24.1305,VALID,355,VALID,0,
2009-12-02, 03:16:04,VALID,999.753,VALID,0,VALID,92.5168,VALID,0,VALID,24.1305,VALID,355,VALID,0,
2009-12-02, 03:17:04,VALID,999.738,VALID,0,VALID,92.3566,VALID,0,VALID,24.1305,VALID,52,VALID,0,
2009-12-02, 03:18:04,VALID,999.757,VALID,0,VALID,92.1429,VALID,0,VALID,24.1305,VALID,52,VALID,0,
2009-12-02, 03:19:04,VALID,999.76,VALID,0,VALID,91.998,VALID,0,VALID,24.1305,VALID,52,VALID,0,
2009-12-02, 03:20:04,VALID,999.747,VALID,0,VALID,91.9369,VALID,0,VALID,24.1305,VALID,52,VALID,0,
2009-12-02, 03:21:04,VALID,999.706,VALID,0,VALID,91.853,VALID,0,VALID,24.111,VALID,69,VALID,0,
2009-12-02, 03:22:04,VALID,999.716,VALID,0,VALID,91.7309,VALID,0,VALID,24.111,VALID,69,VALID,0,
2009-12-02, 03:23:04,VALID,999.697,VALID,0,VALID,91.853,VALID,0,VALID,24.15,VALID,69,VALID,0,
2009-12-02, 03:24:04,VALID,999.751,VALID,0,VALID,91.914,VALID,0,VALID,24.1305,VALID,69,VALID,0,
2009-12-02, 03:25:04,VALID,999.77,VALID,0,VALID,92.0285,VALID,0,VALID,24.1519,VALID,329,VALID,0,
2009-12-02, 03:26:04,VALID,999.801,VALID,0,VALID,92.1506,VALID,0,VALID,24.1305,VALID,328,VALID,0,
2009-12-02, 03:27:04,VALID,999.798,VALID,0,VALID,92.2192,VALID,0,VALID,24.1305,VALID,328,VALID,0,
2009-12-02, 03:28:04,VALID,999.822,VALID,0,VALID,92.2421,VALID,0,VALID,24.1305,VALID,328,VALID,0,
2009-12-02, 03:29:04,VALID,999.803,VALID,0,VALID,92.2421,VALID,0,VALID,24.15,VALID,334,VALID,0,
2009-12-02, 03:30:04,VALID,999.807,VALID,0,VALID,92.2879,VALID,0,VALID,24.1696,VALID,336,VALID,0,
2009-12-02, 03:31:04,VALID,999.803,VALID,0,VALID,92.3031,VALID,0,VALID,24.15,VALID,2,VALID,0,
2009-12-02, 03:32:04,VALID,999.814,VALID,0,VALID,92.265,VALID,0,VALID,24.111,VALID,2,VALID,0.573047,
2009-12-02, 03:33:04,VALID,999.776,VALID,0,VALID,92.1506,VALID,0,VALID,24.0915,VALID,48,VALID,0.984375,
2009-12-02, 03:34:04,VALID,999.723,VALID,0,VALID,92.1582,VALID,0,VALID,24.111,VALID,61,VALID,1.65234,
2009-12-02, 03:35:04,VALID,999.709,VALID,0,VALID,92.2803,VALID,0,VALID,24.1305,VALID,64,VALID,1.49023,
2009-12-02, 03:36:04,VALID,999.718,VALID,0,VALID,92.2726,VALID,0,VALID,24.1305,VALID,92,VALID,1.03477,
2009-12-02, 03:37:04,VALID,999.737,VALID,0,VALID,92.2803,VALID,0,VALID,24.1305,VALID,94,VALID,0.845703,
2009-12-02, 03:38:04,VALID,999.727,VALID,0,VALID,92.3489,VALID,0,VALID,24.111,VALID,93,VALID,0.533984,
2009-12-02, 03:39:04,VALID,999.727,VALID,0,VALID,92.3871,VALID,0,VALID,24.0915,VALID,9,VALID,0.676172,
2009-12-02, 03:40:04,VALID,999.683,VALID,0,VALID,92.3413,VALID,0,VALID,24.072,VALID,358,VALID,0.944141,
2009-12-02, 03:41:04,VALID,999.695,VALID,0,VALID,92.3871,VALID,0,VALID,24.0525,VALID,11,VALID,0.8375,
2009-12-02, 03:42:04,VALID,999.672,VALID,0,VALID,92.1658,VALID,0,VALID,23.9939,VALID,62,VALID,1.42695,
2009-12-02, 03:43:04,VALID,999.71,VALID,0,VALID,92.12,VALID,0,VALID,24.0134,VALID,63,VALID,0.747266,
2009-12-02, 03:44:04,VALID,999.713,VALID,0,VALID,92.1048,VALID,0,VALID,24.0134,VALID,101,VALID,0.553125,
2009-12-02, 03:45:04,VALID,999.718,VALID,0,VALID,92.0895,VALID,0,VALID,23.9744,VALID,97,VALID,0.722656,
2009-12-02, 03:46:04,VALID,999.786,VALID,0,VALID,92.1124,VALID,0,VALID,23.9744,VALID,83,VALID,0.470313,
2009-12-02, 03:47:04,VALID,999.804,VALID,0,VALID,92.1353,VALID,0,VALID,23.9567,VALID,82,VALID,0.273828,
2009-12-02, 03:48:04,VALID,999.829,VALID,0,VALID,92.1963,VALID,0,VALID,23.9567,VALID,339,VALID,0.679688,
2009-12-02, 03:49:04,VALID,999.836,VALID,0,VALID,92.204,VALID,0,VALID,23.9354,VALID,16,VALID,0.729297,
2009-12-02, 03:50:04,VALID,999.849,VALID,0,VALID,92.1353,VALID,0,VALID,23.8963,VALID,30,VALID,0.517187,